Regional Weather Roundup
Issued by NWS Goodland, KS

Home | Current Version | Previous Version | Graphics & Text | Print | Product List | Glossary On
Versions: 1 2 3 4 5 6 7 8 9 10 11 12 13 14 15 16 17 18 19 20 21 22 23 24 25 26 27 28 29 30 31 32 33 34 35 36 37 38 39 40 41 42 43 44 45 46 47 48 49 50
000
ASUS43 KGLD 200959
RWRGLD

GOODLAND FORECAST AREA HOURLY WEATHER ROUNDUP
NATIONAL WEATHER SERVICE GOODLAND KS
400 AM MDT SAT SEP 20 2014

...OFFICIAL OBSERVATIONS...

CITY           SKY/WX    TMP DP  RH WIND       PRES   REMARKS
GOODLAND KS    PTCLDY    65  61  87 SW10      29.98R
HILL CITY KS   PTCLDY    67  59  75 SW8       29.91F
IMPERIAL NEB   CLEAR     61  55  81 N10       29.94R
MCCOOK NEB     MOCLDY    68  62  81 SW7       29.89S
AKRON CO       CLEAR     60  52  74 NW12      30.07R
BURLINGTON CO  CLEAR     62  59  90 SW9       30.01R
LIMON CO       CLEAR     54  47  77 N6        30.11R
$$

...UNOFFICIAL OBSERVATIONS...

CITY           SKY/WX    TMP DP  RH WIND       PRES   REMARKS
COLBY KS       CLEAR     64  64 100 SW8       29.96R
GOVE KS          N/A     69  32  25 MISG        N/A
NORTON KS      CLEAR     68  57  68 S10       29.89R
SHARON SPRINGS   N/A     63  61  93 SW5         N/A
WAKEENEY KS      N/A     66  56  71 MISG        N/A
TRENTON NEB      N/A     66  32  28 SW8         N/A
YUMA CO          N/A     63  51  66 NW12        N/A
$$


USA.gov is the U.S. government's official web portal to all federal, state and local government web resources and services.